Record,Date/Time,10,Freq,Rcvr,Alpha,dTdG,K1,K2,K3,K4,Tnd
     1,03/09/2019 00:04:30,11, 22.000,0, 0.995100,  -499071.65,  0.16543191E+03, -0.15504021E+01,  0.49083044E-02, -0.52730206E-05, 273.10
     2,03/09/2019 00:04:30,11, 22.234,0, 0.997080,  -458725.41,  0.95669020E+02, -0.92484013E+00,  0.30759395E-02, -0.35324078E-05, 237.68
     3,03/09/2019 00:04:30,11, 22.500,0, 0.996000,  -406187.40,  0.25660892E+03, -0.25819544E+01,  0.85485022E-02, -0.92980927E-05, 199.99
     4,03/09/2019 00:04:30,11, 23.000,0, 0.996460,  -386058.84,  0.80322340E+02, -0.69305273E+00,  0.19308656E-02, -0.17107239E-05, 164.45
     5,03/09/2019 00:04:30,11, 23.034,0, 0.997170,  -390667.51,  0.11982393E+02,  0.30545022E-01, -0.60254591E-03,  0.12232425E-05, 163.68
     6,03/09/2019 00:04:30,11, 23.500,0, 0.997550,  -368692.46,  0.99890591E+02, -0.93570264E+00,  0.29523934E-02, -0.31503182E-05, 173.13
     7,03/09/2019 00:04:30,11, 23.834,0, 0.997920,  -376527.84,  0.15890200E+03, -0.15666295E+01,  0.51366914E-02, -0.55998683E-05, 187.39
     8,03/09/2019 00:04:30,11, 24.000,0, 0.996450,  -355334.60,  0.24853953E+03, -0.25184584E+01,  0.84740808E-02, -0.94656113E-05, 196.98
     9,03/09/2019 00:04:30,11, 24.500,0, 0.994550,  -387621.08,  0.83813918E+02, -0.70324691E+00,  0.18990758E-02, -0.16230509E-05, 191.22
    10,03/09/2019 00:04:30,11, 25.000,0, 0.995590,  -365396.41,  0.21502088E+02, -0.16971927E+00,  0.46228154E-03, -0.45763980E-06, 157.87
    11,03/09/2019 00:04:30,11, 25.500,0, 0.997270,  -337460.85,  0.12798899E+03, -0.12846229E+01,  0.42697875E-02, -0.46962759E-05, 139.75
    12,03/09/2019 00:04:30,11, 26.000,0, 0.995340,  -333542.31,  0.74671634E+02, -0.62527339E+00,  0.17409355E-02, -0.16300392E-05, 172.61
    13,03/09/2019 00:04:30,11, 26.234,0, 0.993950,  -322237.97,  0.11519673E+03, -0.10091282E+01,  0.29284075E-02, -0.28221173E-05, 197.57
    14,03/09/2019 00:04:30,11, 26.500,0, 0.993920,  -357546.35, -0.45917317E+02,  0.59695900E+00, -0.23085680E-02,  0.27450808E-05, 230.58
    15,03/09/2019 00:04:30,11, 27.000,0, 0.996280,  -400616.90,  0.18200796E+03, -0.17554716E+01,  0.56489252E-02, -0.60681373E-05, 259.20
    16,03/09/2019 00:04:30,11, 27.500,0, 0.994600,  -367846.26,  0.61900985E+02, -0.37506884E+00,  0.50488044E-03,  0.18075908E-06, 232.52
    17,03/09/2019 00:04:30,11, 28.000,0, 0.994550,  -352210.37,  0.48269270E+02, -0.25583474E+00,  0.27971515E-03,  0.98354210E-07, 237.69
    18,03/09/2019 00:04:30,11, 28.500,0, 0.996090,  -360809.26,  0.24138846E+03, -0.23632637E+01,  0.77497593E-02, -0.85201012E-05, 239.09
    19,03/09/2019 00:04:30,11, 29.000,0, 0.993930,  -358196.95,  0.10568483E+03, -0.95307975E+00,  0.29148993E-02, -0.30519798E-05, 199.62
    20,03/09/2019 00:04:30,11, 29.500,0, 0.991490,  -312519.78, -0.63528261E+02,  0.61795241E+00, -0.19458129E-02,  0.19666623E-05, 107.82
    21,03/09/2019 00:04:30,11, 30.000,0, 0.993370,  -353110.93,  0.15567176E+02, -0.15747733E+00,  0.59272243E-03, -0.80965628E-06, 119.17
Record,Date/Time,30,TkBB(K),Tnd(K) Ch  22.000,R Ch  22.000,Tnd(K) Ch  22.234,R Ch  22.234,Tnd(K) Ch  22.500,R Ch  22.500,Tnd(K) Ch  23.000,R Ch  23.000,Tnd(K) Ch  23.034,R Ch  23.034,Tnd(K) Ch  23.500,R Ch  23.500,Tnd(K) Ch  23.834,R Ch  23.834,Tnd(K) Ch  24.000,R Ch  24.000,Tnd(K) Ch  24.500,R Ch  24.500,Tnd(K) Ch  25.000,R Ch  25.000,Tnd(K) Ch  25.500,R Ch  25.500,Tnd(K) Ch  26.000,R Ch  26.000,Tnd(K) Ch  26.234,R Ch  26.234,Tnd(K) Ch  26.500,R Ch  26.500,Tnd(K) Ch  27.000,R Ch  27.000,Tnd(K) Ch  27.500,R Ch  27.500,Tnd(K) Ch  28.000,R Ch  28.000,Tnd(K) Ch  28.500,R Ch  28.500,Tnd(K) Ch  29.000,R Ch  29.000,Tnd(K) Ch  29.500,R Ch  29.500,Tnd(K) Ch  30.000,R Ch  30.000
Record,Date/Time,20,TkBB(K),Tnd(K) Ch  1,R Ch  1,Tnd(K) Ch  2,R Ch  2,Tnd(K) Ch  3,R Ch  3,Tnd(K) Ch  4,R Ch  4,Tnd(K) Ch  5,R Ch  5
    22,03/09/2019 00:07:36,31,296.977, 272.339, 0.993053, 237.467, 0.995002, 200.014, 0.994523, 164.522, 0.993831, 163.572, 0.993074, 172.983, 0.994226, 187.117, 0.995126, 196.772, 1.000000, 190.753, 0.989757, 157.838, 0.997302, 139.800, 0.991240, 172.615, 0.995967, 197.414, 0.991597, 230.167, 0.994813, 259.442, 0.996250, 232.494, 0.995938, 237.344, 0.994692, 239.020, 0.995006, 199.587, 0.995331, 107.868, 0.993721, 119.202, 0.998170
    23,03/09/2019 00:10:36,31,297.073, 272.337, 0.987219, 237.076, 0.989021, 200.081, 0.990981, 164.277, 0.988775, 163.600, 0.990338, 172.656, 0.990392, 187.306, 0.988281, 196.890, 1.000000, 190.883, 0.984489, 157.720, 0.993227, 139.879, 0.989102, 172.692, 0.991625, 197.423, 0.988674, 230.116, 0.993179, 259.293, 0.994525, 232.034, 0.993226, 237.322, 0.993925, 239.268, 0.993949, 199.703, 0.993853, 107.819, 0.993562, 119.196, 0.997182
    24,03/09/2019 00:13:35,31,297.077, 274.485, 0.986950, 238.753, 0.989221, 201.306, 0.990050, 165.295, 0.986761, 164.530, 0.987032, 173.811, 0.988910, 188.500, 0.987398, 197.876, 1.000000, 191.804, 0.981211, 158.412, 0.991092, 140.183, 0.982144, 172.915, 0.990772, 198.032, 0.988547, 231.021, 0.990451, 260.328, 0.993241, 232.958, 0.992901, 238.169, 0.991188, 239.788, 0.992971, 200.304, 0.993777, 108.080, 0.992784, 119.667, 0.995713
    25,03/09/2019 00:16:35,31,297.063, 273.936, 0.996235, 238.684, 0.995615, 201.009, 0.996445, 165.337, 0.996686, 164.631, 0.996292, 173.936, 0.996488, 188.335, 0.995403, 197.810, 1.000000, 191.871, 0.993658, 158.653, 0.998811, 140.208, 0.993889, 173.162, 0.997629, 198.061, 0.995865, 230.686, 0.996877, 259.954, 0.998956, 233.292, 0.998754, 238.140, 0.996672, 239.480, 0.998220, 199.989, 0.998011, 108.127, 0.997843, 119.372, 0.999278
    26,03/09/2019 00:19:34,31,297.067, 274.545, 0.992703, 239.142, 0.994545, 201.647, 0.996485, 165.362, 0.993219, 164.442, 0.993845, 174.079, 0.995724, 188.297, 0.995045, 197.978, 1.000000, 191.698, 0.990309, 158.567, 0.997293, 140.466, 0.990661, 172.838, 0.997513, 198.199, 0.993736, 231.031, 0.994289, 260.017, 0.998408, 232.776, 0.997389, 237.716, 0.996336, 239.508, 0.997131, 199.895, 0.996096, 107.892, 0.996941, 119.220, 0.997934
    27,03/09/2019 00:22:33,31,297.020, 273.489, 0.995999, 238.187, 0.997093, 200.814, 0.997747, 164.965, 0.996031, 164.178, 0.996967, 173.582, 0.997003, 188.019, 0.995923, 197.524, 1.000000, 191.544, 0.994359, 158.335, 0.997844, 140.110, 0.995387, 172.847, 0.997696, 198.073, 0.995175, 230.554, 0.996946, 259.917, 0.997899, 232.822, 0.998950, 237.517, 0.997655, 239.269, 0.998181, 199.858, 0.998664, 108.006, 0.999117, 119.487, 0.999221
    28,03/09/2019 00:25:33,31,297.004, 272.468, 0.995175, 236.735, 0.997927, 199.645, 0.998117, 163.904, 0.996568, 163.240, 0.996925, 172.503, 0.997345, 186.648, 0.996290, 196.741, 1.000000, 190.677, 0.993992, 157.620, 0.998579, 139.744, 0.994284, 172.099, 0.997933, 196.936, 0.994816, 229.641, 0.995840, 258.795, 0.997651, 231.956, 0.996769, 237.102, 0.996526, 238.413, 0.998497, 199.581, 0.997291, 107.802, 0.998045, 119.073, 0.998188
    29,03/09/2019 00:28:32,31,296.945, 271.925, 0.991142, 237.004, 0.994596, 200.134, 0.995739, 164.129, 0.993117, 163.147, 0.994395, 172.892, 0.993996, 187.322, 0.994315, 196.543, 1.000000, 190.911, 0.990264, 157.645, 0.996591, 139.694, 0.992562, 172.371, 0.996908, 197.238, 0.993382, 229.853, 0.995533, 258.999, 0.998239, 232.190, 0.996658, 237.135, 0.996516, 239.095, 0.998159, 199.118, 0.996150, 107.758, 0.997655, 119.143, 0.998986
    30,03/09/2019 00:31:31,31,296.750, 272.285, 0.991093, 236.869, 0.993227, 199.791, 0.993607, 163.938, 0.992781, 163.005, 0.991596, 172.866, 0.992953, 186.880, 0.992866, 196.776, 1.000000, 190.779, 0.987354, 157.411, 0.996053, 139.755, 0.991321, 172.152, 0.995669, 197.255, 0.992355, 230.104, 0.994528, 259.417, 0.994954, 232.545, 0.994251, 237.633, 0.994993, 238.861, 0.996460, 199.333, 0.997104, 107.743, 0.995261, 119.174, 0.997610
    31,03/09/2019 00:34:31,31,296.687, 272.320, 0.992897, 237.372, 0.996591, 200.608, 0.996273, 164.492, 0.995541, 163.674, 0.995555, 172.844, 0.995468, 187.313, 0.995440, 196.855, 1.000000, 191.191, 0.991256, 157.783, 0.997403, 139.729, 0.993925, 172.457, 0.996706, 197.356, 0.995850, 230.105, 0.996292, 259.113, 0.998130, 233.115, 0.996566, 237.589, 0.996498, 239.052, 0.996657, 199.681, 0.994202, 108.025, 0.995333, 119.410, 0.997722
    32,03/09/2019 00:37:30,31,296.702, 271.787, 0.991237, 236.583, 0.993770, 199.529, 0.992570, 163.876, 0.991118, 163.161, 0.991210, 172.592, 0.990836, 186.974, 0.992703, 196.557, 1.000000, 190.973, 0.987560, 157.401, 0.995650, 139.853, 0.990001, 172.110, 0.993360, 197.105, 0.991137, 230.074, 0.991851, 259.053, 0.995331, 232.203, 0.994350, 236.781, 0.992216, 238.840, 0.994955, 199.443, 0.992764, 107.733, 0.992486, 119.093, 0.996447
    33,03/09/2019 00:40:30,31,296.591, 272.575, 0.989479, 237.392, 0.991301, 200.267, 0.991298, 164.367, 0.989924, 163.665, 0.991266, 172.591, 0.991577, 187.301, 0.989659, 196.920, 1.000000, 191.060, 0.987379, 157.871, 0.994050, 139.873, 0.989303, 172.322, 0.994039, 197.327, 0.992675, 229.957, 0.994849, 259.104, 0.996459, 232.296, 0.994475, 237.052, 0.995979, 239.188, 0.993801, 199.710, 0.994707, 107.755, 0.993688, 119.152, 0.996514
    34,03/09/2019 00:43:30,31,296.523, 272.316, 0.988520, 237.315, 0.991339, 200.006, 0.992209, 164.650, 0.988642, 163.683, 0.990342, 173.022, 0.990120, 187.432, 0.987712, 196.796, 1.000000, 191.155, 0.985139, 157.657, 0.992478, 139.939, 0.984807, 172.469, 0.990534, 197.501, 0.991654, 230.391, 0.989559, 259.697, 0.994444, 232.434, 0.992502, 237.347, 0.993844, 239.125, 0.992622, 199.519, 0.993605, 107.766, 0.992898, 119.135, 0.996680
    35,03/09/2019 00:46:29,31,296.575, 273.001, 0.987537, 237.861, 0.990888, 200.680, 0.989334, 164.778, 0.988852, 163.950, 0.989092, 173.104, 0.988310, 187.870, 0.988200, 197.305, 1.000000, 191.337, 0.984275, 158.044, 0.993944, 140.183, 0.984887, 172.450, 0.992960, 197.937, 0.990317, 230.861, 0.989979, 259.507, 0.992634, 232.683, 0.994371, 237.769, 0.991780, 239.433, 0.993689, 200.219, 0.995311, 107.898, 0.992652, 119.261, 0.995774
    36,03/09/2019 00:49:29,31,296.628, 272.829, 0.991906, 237.099, 0.993874, 200.425, 0.992743, 164.550, 0.992045, 163.633, 0.992160, 173.165, 0.990969, 187.334, 0.991674, 197.726, 1.000000, 191.444, 0.989320, 157.962, 0.992528, 140.120, 0.986622, 172.712, 0.994379, 198.070, 0.991340, 230.323, 0.993888, 259.586, 0.997801, 232.924, 0.994937, 237.597, 0.997137, 239.242, 0.996044, 199.602, 0.995842, 107.885, 0.994992, 119.244, 0.997270
    37,03/09/2019 00:52:28,31,296.633, 273.283, 0.985576, 237.274, 0.987765, 200.194, 0.988157, 164.552, 0.986800, 163.825, 0.986297, 173.292, 0.987428, 187.441, 0.985623, 196.844, 1.000000, 191.206, 0.980130, 157.726, 0.989599, 139.954, 0.980548, 172.498, 0.986631, 197.517, 0.986396, 230.433, 0.984038, 259.278, 0.990566, 232.699, 0.988087, 237.125, 0.987431, 239.139, 0.986389, 199.352, 0.988775, 107.510, 0.988238, 119.008, 0.990268
    38,03/09/2019 00:55:27,31,296.611, 273.858, 0.985443, 237.954, 0.987304, 201.145, 0.987203, 164.885, 0.985646, 164.028, 0.986383, 173.623, 0.984177, 187.858, 0.982613, 197.556, 1.000000, 191.590, 0.977249, 157.827, 0.987473, 139.915, 0.974802, 172.534, 0.984840, 197.655, 0.980993, 230.439, 0.980225, 259.473, 0.984339, 232.426, 0.985069, 237.693, 0.986212, 239.138, 0.985155, 199.622, 0.986179, 107.729, 0.982665, 119.049, 0.988312
    39,03/09/2019 00:58:27,31,296.510, 273.231, 0.984376, 237.338, 0.989138, 200.264, 0.988645, 164.605, 0.986386, 163.493, 0.986974, 172.884, 0.987705, 187.591, 0.985780, 197.011, 1.000000, 190.932, 0.976627, 157.743, 0.987178, 139.723, 0.980663, 172.194, 0.984318, 197.410, 0.982321, 229.840, 0.981621, 259.028, 0.986938, 232.163, 0.986351, 236.946, 0.985486, 238.547, 0.984775, 199.167, 0.983926, 107.653, 0.982942, 119.063, 0.986467
    40,03/09/2019 01:01:26,31,296.405, 272.102, 0.996945, 236.955, 0.998412, 200.066, 0.999377, 164.142, 0.998059, 163.263, 0.998576, 172.774, 0.998403, 186.933, 0.999068, 196.410, 1.000000, 190.827, 0.996774, 157.494, 0.999899, 139.615, 0.998955, 172.177, 0.999807, 196.820, 0.996581, 229.792, 0.999603, 258.460, 0.998854, 231.756, 0.999692, 237.259, 0.998310, 238.858, 0.999447, 199.128, 0.997263, 107.519, 0.999381, 118.772, 0.999613
    41,03/09/2019 01:04:25,31,296.357, 273.907, 0.994008, 238.459, 0.995787, 201.197, 0.996013, 165.061, 0.994098, 164.213, 0.995122, 173.564, 0.995190, 187.861, 0.995211, 197.678, 1.000000, 191.627, 0.988228, 158.119, 0.996158, 140.049, 0.991808, 172.461, 0.994025, 197.836, 0.995077, 230.716, 0.995082, 259.916, 0.996111, 233.025, 0.997129, 237.615, 0.996697, 239.269, 0.994577, 199.942, 0.996152, 108.090, 0.994786, 119.300, 0.996714
    42,03/09/2019 01:07:24,31,296.297, 273.655, 0.992066, 238.016, 0.996292, 200.491, 0.996491, 164.817, 0.992850, 164.154, 0.993075, 173.590, 0.994694, 188.127, 0.993744, 197.639, 1.000000, 191.701, 0.988522, 157.959, 0.997264, 140.398, 0.992606, 172.741, 0.997188, 197.807, 0.993876, 230.424, 0.994444, 259.516, 0.995857, 233.069, 0.995086, 237.780, 0.995108, 239.314, 0.995586, 199.991, 0.995318, 107.823, 0.995053, 119.223, 0.997673
    43,03/09/2019 01:10:24,31,296.233, 272.312, 0.991273, 236.760, 0.994736, 200.037, 0.993841, 164.130, 0.992466, 163.608, 0.992477, 172.764, 0.992331, 187.242, 0.992345, 196.967, 1.000000, 190.984, 0.987145, 158.019, 0.993678, 139.802, 0.992242, 172.327, 0.994221, 197.070, 0.991053, 230.198, 0.992703, 259.140, 0.995023, 232.429, 0.994434, 237.519, 0.994743, 238.851, 0.995528, 199.619, 0.994434, 107.738, 0.994748, 119.237, 0.996239
    44,03/09/2019 01:13:24,31,296.105, 272.467, 0.992999, 237.234, 0.992838, 200.151, 0.994839, 164.360, 0.994271, 163.526, 0.993364, 172.932, 0.992253, 187.472, 0.992596, 196.976, 1.000000, 191.084, 0.989806, 157.722, 0.995429, 139.679, 0.988829, 172.454, 0.994930, 196.793, 0.992470, 230.019, 0.993816, 259.131, 0.995637, 232.031, 0.993877, 236.902, 0.996755, 238.811, 0.993810, 199.539, 0.995808, 107.824, 0.993905, 119.206, 0.996542
    45,03/09/2019 01:16:24,31,296.018, 271.985, 0.995234, 237.125, 0.995748, 200.053, 0.995019, 164.020, 0.994792, 163.013, 0.994647, 172.530, 0.995180, 187.067, 0.993465, 196.372, 1.000000, 190.602, 0.990653, 157.518, 0.997440, 139.751, 0.993015, 172.243, 0.996927, 197.166, 0.994137, 229.999, 0.995587, 259.075, 0.997659, 232.579, 0.997093, 236.879, 0.996414, 238.691, 0.996248, 199.553, 0.997463, 107.570, 0.994651, 119.027, 0.997926
    46,03/09/2019 01:19:23,31,295.931, 272.645, 0.997108, 237.177, 0.997729, 200.009, 0.997744, 164.288, 0.996635, 163.539, 0.997362, 173.046, 0.996899, 187.245, 0.996569, 196.979, 1.000000, 191.126, 0.993323, 157.671, 0.998117, 139.835, 0.993770, 172.117, 0.997631, 197.404, 0.995613, 229.849, 0.996048, 259.199, 0.998577, 232.282, 0.998583, 237.306, 0.998796, 239.186, 0.995382, 199.734, 0.997698, 107.943, 0.997819, 119.278, 0.998435
    47,03/09/2019 01:22:22,31,295.713, 273.288, 0.993295, 238.136, 0.996285, 200.405, 0.996144, 164.854, 0.995118, 164.180, 0.995662, 173.269, 0.996116, 187.833, 0.995886, 197.334, 1.000000, 191.317, 0.990284, 157.948, 0.998327, 139.925, 0.991823, 172.755, 0.996000, 197.795, 0.992009, 230.832, 0.994060, 259.329, 0.997388, 232.550, 0.996977, 237.910, 0.996314, 239.193, 0.996851, 199.638, 0.997192, 107.909, 0.997648, 119.064, 0.997605
    48,03/09/2019 01:25:22,31,295.601, 273.163, 0.996255, 238.009, 0.997940, 200.472, 0.998100, 164.761, 0.997348, 163.816, 0.997155, 172.986, 0.997851, 187.918, 0.996427, 197.145, 1.000000, 191.447, 0.993135, 158.175, 0.998432, 139.953, 0.995790, 172.396, 0.997985, 197.733, 0.995195, 230.463, 0.997375, 259.754, 0.998827, 233.169, 0.998288, 237.730, 0.997640, 239.525, 0.997617, 199.887, 0.997884, 107.879, 0.998029, 119.259, 0.998260
    49,03/09/2019 01:28:23,31,295.467, 272.598, 0.995182, 237.968, 0.999053, 200.055, 0.999032, 164.506, 0.997176, 163.460, 0.997407, 173.219, 0.998213, 187.609, 0.997185, 197.248, 1.000000, 191.157, 0.994239, 157.999, 0.998946, 139.993, 0.995541, 172.414, 0.998144, 197.542, 0.994741, 230.040, 0.998015, 259.225, 0.998546, 232.790, 0.998562, 237.558, 0.997333, 239.025, 0.998940, 199.659, 0.998519, 107.897, 0.999116, 119.087, 0.999617
    50,03/09/2019 01:31:22,31,295.343, 272.767, 0.993794, 237.169, 0.996799, 199.931, 0.997378, 164.420, 0.995080, 163.522, 0.996003, 172.736, 0.996519, 187.188, 0.996757, 196.529, 1.000000, 190.781, 0.990719, 157.632, 0.997647, 139.724, 0.994325, 172.556, 0.997309, 197.657, 0.992506, 230.056, 0.997012, 259.234, 0.997948, 231.988, 0.997803, 237.360, 0.996631, 238.805, 0.998260, 199.773, 0.997779, 107.736, 0.996012, 119.059, 0.998011
    51,03/09/2019 01:34:22,31,295.285, 272.773, 0.996770, 237.072, 0.999009, 200.542, 0.998535, 164.394, 0.997567, 163.493, 0.998311, 173.078, 0.997901, 187.153, 0.997972, 196.737, 1.000000, 190.819, 0.994919, 157.684, 0.999482, 139.655, 0.997354, 172.026, 0.998785, 197.152, 0.996907, 229.892, 0.998362, 258.881, 0.999084, 232.361, 0.998834, 237.433, 0.997752, 239.169, 0.998762, 199.537, 0.997185, 107.580, 0.998223, 119.050, 0.999482
    52,03/09/2019 01:37:21,31,295.232, 272.596, 0.995834, 237.095, 0.998061, 200.260, 0.998280, 164.433, 0.996811, 163.642, 0.996985, 173.122, 0.997835, 187.046, 0.996936, 196.563, 1.000000, 191.013, 0.994947, 157.757, 0.998797, 139.888, 0.996438, 172.468, 0.998047, 197.313, 0.995618, 230.003, 0.998646, 259.421, 0.998057, 232.309, 0.998482, 237.085, 0.997943, 238.947, 0.998797, 199.760, 0.997384, 107.865, 0.996913, 118.940, 0.999053
    53,03/09/2019 01:40:20,31,295.117, 272.274, 0.998473, 237.368, 0.999038, 199.801, 0.999627, 164.444, 0.998796, 163.374, 0.999055, 173.062, 0.998900, 187.355, 0.999057, 197.426, 1.000000, 191.162, 0.996869, 157.924, 0.999841, 139.924, 0.996202, 172.526, 0.999343, 197.423, 0.999042, 230.175, 0.998786, 259.508, 0.999848, 232.704, 0.998940, 237.278, 0.999582, 239.393, 0.999682, 199.667, 0.999427, 107.845, 0.997726, 119.362, 0.999731
    54,03/09/2019 01:43:20,31,295.053, 271.686, 0.995160, 237.312, 0.998065, 200.192, 0.998194, 164.267, 0.996915, 163.361, 0.996477, 172.883, 0.997892, 187.217, 0.996981, 196.686, 1.000000, 190.949, 0.992538, 157.838, 0.998393, 139.823, 0.994969, 172.207, 0.998043, 197.610, 0.995499, 230.148, 0.995934, 259.405, 0.996697, 232.568, 0.997747, 237.101, 0.996990, 239.184, 0.996761, 199.701, 0.997370, 108.056, 0.997862, 119.139, 0.998933
    55,03/09/2019 01:46:20,31,294.875, 273.142, 0.992560, 237.989, 0.997365, 200.785, 0.995294, 164.977, 0.994955, 163.820, 0.995866, 173.157, 0.994491, 187.830, 0.993703, 197.431, 1.000000, 191.624, 0.989728, 157.927, 0.997554, 140.000, 0.990856, 172.790, 0.997538, 197.711, 0.994794, 230.532, 0.996198, 259.747, 0.997895, 232.806, 0.996818, 237.894, 0.996472, 239.329, 0.997064, 199.700, 0.998093, 108.024, 0.996644, 119.171, 0.998151
    56,03/09/2019 01:49:19,31,294.643, 273.900, 0.994494, 238.282, 0.996642, 200.945, 0.996878, 164.895, 0.995328, 163.999, 0.995756, 173.414, 0.996040, 188.023, 0.994173, 197.662, 1.000000, 191.632, 0.991022, 158.187, 0.998032, 140.051, 0.993418, 172.542, 0.997648, 197.820, 0.994771, 230.626, 0.996626, 259.366, 0.997876, 232.784, 0.997787, 237.679, 0.997251, 239.536, 0.997859, 199.861, 0.997202, 108.132, 0.996408, 119.189, 0.998029
    57,03/09/2019 01:52:19,31,294.491, 272.898, 0.996908, 238.009, 0.998831, 200.347, 0.998876, 164.788, 0.998794, 163.617, 0.998158, 173.038, 0.998739, 187.364, 0.998559, 196.772, 1.000000, 191.190, 0.996933, 157.932, 0.999901, 139.951, 0.996922, 172.393, 0.999580, 197.540, 0.998462, 230.240, 0.998804, 259.553, 0.999027, 232.649, 0.997805, 237.475, 0.998518, 239.195, 0.998301, 199.716, 0.997223, 107.954, 0.998345, 119.222, 0.999434
    58,03/09/2019 01:55:19,31,294.389, 272.115, 0.995696, 236.535, 0.999259, 199.515, 0.998521, 164.076, 0.997244, 163.534, 0.997955, 172.570, 0.998436, 186.927, 0.998424, 196.491, 1.000000, 190.487, 0.995106, 157.560, 0.999146, 139.709, 0.997073, 172.068, 0.998157, 197.210, 0.996104, 229.791, 0.997874, 258.866, 0.999171, 232.259, 0.999172, 236.752, 0.998406, 238.903, 0.998968, 199.553, 0.997450, 107.692, 0.997816, 118.970, 0.999801
    59,03/09/2019 01:58:18,31,294.238, 270.930, 0.996358, 235.818, 0.999199, 198.854, 0.999099, 163.219, 0.997701, 162.562, 0.998239, 172.085, 0.998663, 186.376, 0.998691, 196.126, 1.000000, 189.957, 0.996688, 156.883, 0.999229, 139.331, 0.997689, 171.804, 0.998944, 196.733, 0.995673, 228.831, 0.998734, 258.130, 0.999185, 231.173, 0.998784, 236.493, 0.997756, 237.922, 0.999025, 198.842, 0.997238, 107.491, 0.997998, 118.718, 0.999164
    60,03/09/2019 02:01:18,31,294.129, 272.211, 0.995898, 237.311, 0.997451, 199.689, 0.998344, 164.399, 0.996982, 163.351, 0.997200, 172.670, 0.996893, 186.740, 0.996626, 196.669, 1.000000, 190.953, 0.994010, 157.849, 0.998167, 139.683, 0.993874, 172.313, 0.997087, 197.097, 0.996129, 229.995, 0.996543, 258.913, 0.997795, 232.206, 0.997548, 237.023, 0.998327, 238.783, 0.997698, 199.595, 0.997713, 107.744, 0.995992, 118.947, 0.998079
    61,03/09/2019 02:04:17,31,293.967, 272.371, 0.995229, 237.292, 0.997449, 200.231, 0.997424, 164.074, 0.994841, 163.365, 0.995145, 172.623, 0.994369, 187.195, 0.995047, 196.972, 1.000000, 190.829, 0.990975, 157.485, 0.997848, 139.945, 0.993339, 172.254, 0.996277, 197.189, 0.994528, 229.876, 0.995479, 259.057, 0.997808, 232.258, 0.996369, 236.999, 0.996924, 239.096, 0.996265, 199.817, 0.994806, 107.724, 0.994370, 118.904, 0.998600
    62,03/09/2019 02:07:17,31,293.881, 272.722, 0.992744, 236.780, 0.993885, 200.231, 0.995120, 164.396, 0.991172, 163.389, 0.992461, 172.702, 0.992761, 187.296, 0.992170, 196.751, 1.000000, 190.904, 0.988221, 157.528, 0.995516, 139.679, 0.987111, 172.328, 0.995099, 197.450, 0.991819, 229.841, 0.992723, 259.012, 0.996430, 232.354, 0.992991, 236.774, 0.996038, 239.544, 0.995275, 199.498, 0.993551, 108.047, 0.994591, 119.159, 0.994740
    63,03/09/2019 02:10:17,31,293.797, 273.262, 0.995097, 238.227, 0.996113, 200.651, 0.996026, 164.930, 0.995203, 164.031, 0.996224, 173.156, 0.995445, 187.714, 0.994961, 197.440, 1.000000, 191.634, 0.991074, 158.108, 0.996958, 140.308, 0.991908, 172.793, 0.997801, 197.824, 0.995133, 230.769, 0.995306, 259.886, 0.997977, 232.827, 0.996065, 238.094, 0.997767, 239.690, 0.996771, 200.278, 0.998000, 108.272, 0.996009, 119.486, 0.998207
    64,03/09/2019 02:13:17,31,293.779, 273.070, 0.997348, 238.193, 0.999197, 200.751, 0.998940, 164.865, 0.998753, 164.074, 0.997566, 173.643, 0.998756, 187.720, 0.998913, 197.445, 1.000000, 191.759, 0.996751, 158.087, 0.995470, 140.296, 0.997774, 172.984, 0.995129, 197.729, 0.992902, 230.455, 0.996380, 259.785, 0.991236, 233.050, 0.993004, 237.606, 0.989265, 239.635, 0.993047, 199.933, 0.989348, 108.175, 0.992711, 119.181, 0.992080
    65,03/09/2019 02:16:16,31,293.697, 270.810, 0.996180, 235.828, 0.997812, 198.775, 0.997177, 163.654, 0.996438, 162.582, 0.996834, 171.562, 0.996525, 186.389, 0.997001, 196.111, 1.000000, 190.212, 0.992624, 156.919, 0.998831, 139.380, 0.996449, 171.738, 0.998595, 196.574, 0.994561, 229.126, 0.996966, 258.296, 0.999179, 231.590, 0.998666, 236.647, 0.998539, 238.427, 0.998984, 198.929, 0.997663, 107.670, 0.997423, 118.681, 0.999814
    66,03/09/2019 02:19:16,31,293.642, 273.500, 0.991348, 238.082, 0.993256, 200.741, 0.993751, 164.921, 0.992336, 164.141, 0.993117, 173.298, 0.991782, 187.977, 0.990708, 197.361, 1.000000, 191.494, 0.988136, 158.084, 0.994775, 140.079, 0.987244, 172.888, 0.992834, 197.681, 0.992385, 230.341, 0.993873, 259.722, 0.996546, 232.801, 0.995114, 237.605, 0.996482, 239.873, 0.992765, 200.153, 0.996510, 107.926, 0.994639, 119.403, 0.995977
    67,03/09/2019 02:22:16,31,293.566, 273.119, 0.991500, 238.133, 0.995333, 200.938, 0.995392, 165.010, 0.993734, 164.036, 0.994216, 173.710, 0.994184, 187.620, 0.992954, 197.385, 1.000000, 191.315, 0.988423, 157.975, 0.996817, 139.869, 0.990885, 172.681, 0.995198, 197.722, 0.992657, 230.315, 0.994602, 259.325, 0.997023, 232.769, 0.994960, 237.444, 0.996097, 239.037, 0.995540, 199.580, 0.995184, 107.863, 0.993350, 119.149, 0.996984